Torna al catalogo

DELTA 1 DEB

AttivoLEO
NORAD 10227·DEBRIS·🇺🇸 United States

Lanciato Jul 14, 1977 da Cape Canaveral Space Force Station

Loading…

Prossimi Passaggi (prossime 24 ore)

TLE

AggiornatoSource: Space-Track

Epoca: Sep 14, 2026, 05:50 UTC

1 10227U 77065BE  26257.24315349  .00001097  00000-0  33099-3 0  9994
2 10227  28.9538 224.2604 0671618 263.9304  88.4379 13.53365399386750

Traccia DELTA 1 DEB in tempo reale con AllMySat

Download on the App Store